Event Log

Records: 182 Pagina: 6 / 8 USB: 6F2E7E9687 ×
CSV
ID Machine Gebeurtenis Tijd Uren Service Status USB ID
309321 60-055XAS-S5 Engine Start 06-09-2025 11:50:31 319 -Niet ingesteld 6F2E7E9687
309296 60-055XAS-S5 Battery Under Volts Warning 06-09-2025 08:13:06 319 -Niet ingesteld 6F2E7E9687
308882 60-055XAS-S5 Engine Stopped 04-09-2025 11:53:05 319 -Niet ingesteld 6F2E7E9687
308883 60-055XAS-S5 Engine Start 04-09-2025 11:51:33 319 -Niet ingesteld 6F2E7E9687
308200 60-055XAS-S5 Engine Start 02-09-2025 07:04:00 319 -Niet ingesteld 6F2E7E9687
308194 60-055XAS-S5 Engine Stopped 02-09-2025 06:49:51 319 -Niet ingesteld 6F2E7E9687
308189 60-055XAS-S5 Engine Start 02-09-2025 06:44:40 319 -Niet ingesteld 6F2E7E9687
308186 60-055XAS-S5 Engine Stopped 02-09-2025 06:42:41 319 -Niet ingesteld 6F2E7E9687
308183 60-055XAS-S5 Engine Start 02-09-2025 06:38:31 319 -Niet ingesteld 6F2E7E9687
308184 60-055XAS-S5 Engine Stopped 02-09-2025 06:38:21 319 -Niet ingesteld 6F2E7E9687
308185 60-055XAS-S5 Generator Under Volts Shutdown 02-09-2025 06:38:10 319 -Niet ingesteld 6F2E7E9687
308181 60-055XAS-S5 Engine Start 02-09-2025 06:37:06 319 -Niet ingesteld 6F2E7E9687
308178 60-055XAS-S5 Engine Stopped 02-09-2025 06:36:47 319 -Niet ingesteld 6F2E7E9687
308179 60-055XAS-S5 Generator Under Volts Shutdown 02-09-2025 06:36:36 319 -Niet ingesteld 6F2E7E9687
308175 60-055XAS-S5 Engine Start 02-09-2025 06:32:54 319 -Niet ingesteld 6F2E7E9687
308176 60-055XAS-S5 Engine Stopped 02-09-2025 06:32:26 319 -Niet ingesteld 6F2E7E9687
308174 60-055XAS-S5 kW Overload Alarm Warning 02-09-2025 06:30:12 319 -Niet ingesteld 6F2E7E9687
308171 60-055XAS-S5 Engine Start 02-09-2025 06:24:15 319 -Niet ingesteld 6F2E7E9687
307894 60-055XAS-S5 MSC Failure Warning 31-08-2025 09:52:06 319 -Niet ingesteld 6F2E7E9687
307869 60-055XAS-S5 Engine Stopped 30-08-2025 22:22:32 319 -Niet ingesteld 6F2E7E9687
307871 60-055XAS-S5 Engine Start 30-08-2025 22:22:04 319 -Niet ingesteld 6F2E7E9687
307435 60-055XAS-S5 Engine Stopped 27-08-2025 19:26:56 319 -Niet ingesteld 6F2E7E9687
307434 60-055XAS-S5 Engine Start 27-08-2025 19:26:27 319 -Niet ingesteld 6F2E7E9687
307408 60-055XAS-S5 Engine Stopped 27-08-2025 14:35:59 319 -Niet ingesteld 6F2E7E9687
307407 60-055XAS-S5 Generator Over Current Warning 27-08-2025 14:35:46 319 -Niet ingesteld 6F2E7E9687
126–150 van 182